Kodiak, AK

12:27 AM AKST on February 24, 2017 (GMT -0900)
Kodiak

Weather History for PADQ - September, 2011

Change the Weather History Date:

Sunday, September 4, 2011

  Actual Average Record
Temperature  
Mean Temperature 51 °F 53 °F  
Max Temperature 52 °F 59 °F 71 °F (1929)
Min Temperature 49 °F 46 °F 36 °F (1988)
Degree Days  
Heating Degree Days 14 12  
Month to date heating degree days 52 48  
Since 1 July heating degree days 669 678  
Cooling Degree Days 0    
Month to date cooling degree days 0  
Year to date cooling degree days 0  
Moisture  
Dew Point 48 °F    
Average Humidity 0    
Maximum Humidity 0    
Minimum Humidity 0    
Precipitation  
Precipitation 0.48 in 0.19 in 2.00 in (1934)
Month to date precipitation 3.38 0.75  
Year to date precipitation 42.76 47.54  
Snow  
Snow 0.00 in 0.00 in 0.00 in (2016)
Month to date snowfall 0.0 0.0  
Since 1 July snowfall 0.0 0.0  
Since 1 September snowfall 0.0 0.0  
Snow Depth 0.00 in    
Sea Level Pressure  
Sea Level Pressure 29.25 in    
Wind  
Wind Speed 7 mph (ENE)    
Max Wind Speed 15 mph    
Max Gust Speed 18 mph    
Visibility 8 miles    
Events Rain    
T = Trace of Precipitation, MM = Missing Value Source: NWS Daily Summary

Daily Weather History Graph

Daily Weather History Graph

Search for Another Location

Airport or City:

Trip Planner

Search our weather history database for the weather conditions in past years. The results will help you decide how hot, cold, wet, or windy it might be!

Date:

Astronomy

Sep. 04, 2011 Rise Set
Actual Time 7:16 AM AKDT 8:59 PM AKDT
Civil Twilight 6:35 AM AKDT 9:40 PM AKDT
Nautical Twilight 5:43 AM AKDT 10:32 PM AKDT
Astronomical Twilight 4:42 AM AKDT 11:32 PM AKDT
Moon 5:05 PM AKDT (9/4) 11:37 PM AKDT (9/4)
Length of Visible Light 15h 05m
Length of Day
13h 43m
Waxing Crescent, 51% of the Moon is Illuminated
Sep 4
Waxing Crescent
Sep 12
Full
Sep 20
Last Quarter
Sep 27
New
Oct 3
First Quarter

Hourly Weather History & Observations

Time (AKDT) Temp. Dew Point Humidity Pressure Visibility Wind Dir Wind Speed Gust Speed Precip Events Conditions
12:49 AM 51.8 °F 50.0 °F 94% 29.45 in 4.0 mi Calm Calm - 0.25 in Rain Rain
12:53 AM 51.1 °F 50.0 °F 96% 29.45 in 4.0 mi Calm Calm - 0.27 in Rain Heavy Rain
1:11 AM 50.0 °F 48.2 °F 94% 29.44 in 4.0 mi East 5.8 mph - 0.06 in Rain Rain
1:25 AM 50.0 °F 48.2 °F 94% 29.44 in 3.0 mi East 5.8 mph - 0.12 in Rain Heavy Rain
1:53 AM 50.0 °F 48.0 °F 93% 29.44 in 5.0 mi ESE 5.8 mph - 0.21 in Rain Rain
2:53 AM 50.0 °F 48.0 °F 93% 29.43 in 2.5 mi NE 3.5 mph - 0.19 in Rain Heavy Rain
3:02 AM 50.0 °F 48.2 °F 94% 29.42 in 3.0 mi NE 4.6 mph - 0.03 in Rain Rain
3:09 AM 50.0 °F 48.2 °F 94% 29.42 in 5.0 mi NE 3.5 mph - 0.04 in Rain Light Rain
3:53 AM 50.0 °F 48.0 °F 93% 29.41 in 7.0 mi East 8.1 mph - 0.05 in Rain Light Rain
4:53 AM 50.0 °F 48.0 °F 93% 29.39 in 5.0 mi East 6.9 mph - 0.04 in Rain Light Rain
5:53 AM 50.0 °F 48.0 °F 93% 29.37 in 9.0 mi East 9.2 mph - 0.00 in Rain Light Rain
6:11 AM 50.0 °F 48.2 °F 94% 29.36 in 10.0 mi ESE 9.2 mph - 0.00 in   Overcast
6:53 AM 50.0 °F 48.0 °F 93% 29.34 in 10.0 mi ESE 8.1 mph - 0.00 in   Overcast
7:53 AM 50.0 °F 48.0 °F 93% 29.32 in 10.0 mi East 6.9 mph - N/A   Overcast
8:27 AM 50.0 °F 48.2 °F 94% 29.31 in 10.0 mi ESE 3.5 mph - N/A   Mostly Cloudy
8:53 AM 48.9 °F 46.0 °F 90% 29.30 in 10.0 mi ESE 3.5 mph - N/A   Mostly Cloudy
9:53 AM 50.0 °F 48.0 °F 93% 29.29 in 10.0 mi Variable 3.5 mph - N/A   Mostly Cloudy
10:53 AM 51.1 °F 46.9 °F 86% 29.27 in 10.0 mi ESE 6.9 mph - N/A   Mostly Cloudy
11:16 AM 50.0 °F 46.4 °F 87% 29.26 in 10.0 mi East 4.6 mph - 0.00 in Rain Light Rain
11:23 AM 50.0 °F 46.4 °F 87% 29.26 in 10.0 mi East 4.6 mph - 0.00 in   Overcast
11:32 AM 50.0 °F 46.4 °F 87% 29.26 in 10.0 mi ENE 3.5 mph - 0.00 in   Mostly Cloudy
11:53 AM 51.1 °F 46.9 °F 86% 29.26 in 10.0 mi ENE 3.5 mph - 0.00 in Rain Light Rain
12:53 PM 52.0 °F 46.9 °F 83% 29.24 in 10.0 mi East 5.8 mph - 0.00 in   Mostly Cloudy
1:53 PM 51.1 °F 48.0 °F 89% 29.21 in 10.0 mi East 9.2 mph - N/A   Mostly Cloudy
2:00 PM 51.8 °F 48.2 °F 88% 29.21 in 10.0 mi ENE 8.1 mph - N/A   Mostly Cloudy
2:53 PM 50.0 °F 48.9 °F 96% 29.19 in 10.0 mi East 10.4 mph - 0.00 in Rain Light Rain
3:20 PM 51.8 °F 48.2 °F 88% 29.18 in 10.0 mi East 11.5 mph - 0.01 in Rain Light Rain
3:27 PM 51.8 °F 48.2 °F 88% 29.18 in 10.0 mi ENE 12.7 mph - 0.02 in Rain Light Rain
3:53 PM 51.1 °F 48.9 °F 92% 29.17 in 8.0 mi East 12.7 mph - 0.02 in Rain Light Rain
4:00 PM 51.8 °F 48.2 °F 88% 29.17 in 10.0 mi ENE 12.7 mph - 0.01 in Rain Light Rain
4:02 PM 51.8 °F 48.2 °F 88% 29.16 in 10.0 mi ENE 12.7 mph - 0.01 in Rain Light Rain
4:53 PM 51.1 °F 48.9 °F 92% 29.14 in 9.0 mi ENE 13.8 mph - 0.02 in Rain Light Rain
5:53 PM 50.0 °F 48.0 °F 93% 29.11 in 10.0 mi ENE 15.0 mph - 0.02 in Rain Light Rain
6:53 PM 50.0 °F 46.9 °F 89% 29.08 in 3.0 mi ENE 15.0 mph - 0.00 in Rain Light Rain
7:53 PM 50.0 °F 46.9 °F 89% 29.06 in 7.0 mi ENE 17.3 mph - 0.01 in Rain Light Rain
8:53 PM 50.0 °F 46.9 °F 89% 29.03 in 5.0 mi ENE 23.0 mph 27.6 mph 0.02 in Rain Light Rain
9:53 PM 50.0 °F 46.0 °F 86% 29.01 in 10.0 mi ENE 19.6 mph - 0.01 in   Overcast
10:53 PM 50.0 °F 46.9 °F 89% 28.99 in 4.0 mi NE 19.6 mph - 0.00 in Rain Light Rain
11:41 PM 48.2 °F 46.4 °F 93% 28.96 in 2.0 mi NE 21.9 mph - 0.01 in Rain Light Rain
11:53 PM 48.9 °F 46.9 °F 93% 28.96 in 4.0 mi NE 20.7 mph 31.1 mph 0.02 in Rain Light Rain